Weather History for Naples, Italy

Change the Weather History Date:

Friday, July 4, 2014

  Actual Average Record
Temperature  
Mean Temperature 81 °F -  
Max Temperature 91 °F 85 °F 95 °F (2000)
Min Temperature 71 °F 64 °F 64 °F (2001)
Cooling Degree Days 16    
Growing Degree Days 31 (Base 50)    
Moisture  
Dew Point 62 °F    
Average Humidity 53    
Maximum Humidity 69    
Minimum Humidity 33    
Precipitation  
Precipitation 0.00 in 0.04 in - ()
Sea Level Pressure  
Sea Level Pressure 30.07 in    
Wind  
Wind Speed 4 mph ()    
Max Wind Speed 9 mph    
Max Gust Speed -    
Visibility 8.0 miles    
Events      
Averages and records for this station are not official NWS values.
T = Trace of Precipitation, MM = Missing Value Source: Averaged Metar Reports

Daily Weather History Graph

Daily Weather History Graph

Search for Another Location

Airport:

Trip Planner

Search our weather history database for the weather conditions in past years. The results will help you decide how hot, cold, wet, or windy it might be!

Date:

Astronomy

Jul. 04, 2014 Rise Set
Actual Time 5:36 AM CEST 8:37 PM CEST
Civil Twilight 5:03 AM CEST 9:11 PM CEST
Nautical Twilight 4:20 AM CEST 9:53 PM CEST
Astronomical Twilight 3:31 AM CEST 10:42 PM CEST
Moon 12:18 PM CEST (7/4) No Moon Set
Length of Visible Light 16h 08m
Length of Day
15h 01m
Waxing Crescent, 39% of the Moon is Illuminated
Jul 4
Waxing Crescent
Jul 5
First Quarter
Jul 12
Full
Jul 19
Last Quarter
Jul 27
New

Hourly Weather History & Observations

Time (CEST) Temp. Heat Index Dew Point Humidity Pressure Visibility Wind Dir Wind Speed Gust Speed Precip Events Conditions
12:20 AM 77.0 °F - 60.8 °F 57% 30.15 in - Variable 2.3 mph - N/A   Clear
12:50 AM 77.0 °F - 62.6 °F 61% 30.15 in - North 2.3 mph - N/A   Clear
1:20 AM 77.0 °F - 64.4 °F 65% 30.15 in - NNW 3.5 mph - N/A   Clear
1:50 AM 75.2 °F - 64.4 °F 69% 30.15 in - North 2.3 mph - N/A   Clear
2:00 AM 76 °F - 64 °F 59% 30.14 in 6 mi North 3.5 mph - -  
2:20 AM 75.2 °F - 64.4 °F 69% 30.12 in - North 4.6 mph - N/A   Clear
2:50 AM 75.2 °F - 62.6 °F 65% 30.12 in - North 3.5 mph - N/A   Clear
3:20 AM 75.2 °F - 60.8 °F 61% 30.12 in - NNW 3.5 mph - N/A   Clear
3:50 AM 75.2 °F - 60.8 °F 61% 30.12 in - North 4.6 mph - N/A   Clear
4:20 AM 73.4 °F - 60.8 °F 65% 30.09 in - North 4.6 mph - N/A   Clear
4:50 AM 73.4 °F - 59.0 °F 61% 30.09 in - North 3.5 mph - N/A   Clear
5:00 AM 74 °F - 60 °F 53% 30.11 in 6 mi NNW 3.5 mph - -  
5:20 AM 73.4 °F - 60.8 °F 65% 30.09 in - NW 3.5 mph - N/A   Clear
5:50 AM 73.4 °F - 60.8 °F 65% 30.09 in - NNW 4.6 mph - N/A   Clear
6:20 AM 73.4 °F - 60.8 °F 65% 30.09 in - NW 3.5 mph - N/A   Clear
6:50 AM 75.2 °F - 60.8 °F 61% 30.09 in - NNW 5.8 mph - N/A   Clear
7:20 AM 77.0 °F - 60.8 °F 57% 30.12 in - North 4.6 mph - N/A   Clear
7:50 AM 77.0 °F - 60.8 °F 57% 30.12 in - North 4.6 mph - N/A   Clear
8:00 AM 77 °F - 61 °F 47% 30.11 in 6 mi NNE 6.9 mph - -  
8:20 AM 78.8 °F - 60.8 °F 54% 30.09 in - NNE 6.9 mph - N/A   Clear
8:50 AM 80.6 °F 81.8 °F 62.6 °F 54% 30.09 in - NNE 5.8 mph - N/A   Clear
9:20 AM 80.6 °F 81.8 °F 62.6 °F 54% 30.09 in - NE 6.9 mph - N/A   Clear
9:50 AM 82.4 °F 83.4 °F 62.6 °F 51% 30.09 in - NE 5.8 mph - N/A   Clear
10:20 AM 84.2 °F 84.4 °F 60.8 °F 45% 30.09 in - NE 4.6 mph - N/A   Clear
10:50 AM 86.0 °F 86.1 °F 60.8 °F 43% 30.09 in - NE 5.8 mph - N/A   Clear
11:00 AM 86 °F - 61 °F 33% 30.09 in 6 mi NE 6.9 mph - -  
11:20 AM 86.0 °F 86.1 °F 60.8 °F 43% 30.09 in - Variable 5.8 mph - N/A   Clear
11:50 AM 87.8 °F 87.1 °F 59.0 °F 38% 30.09 in - NNW 6.9 mph - N/A   Clear
12:20 PM 87.8 °F 87.1 °F 59.0 °F 38% 30.09 in - North 4.6 mph - N/A   Clear
12:50 PM 89.6 °F 89.5 °F 60.8 °F 38% 30.06 in - Variable 3.5 mph - N/A   Clear
1:20 PM 89.6 °F 90.1 °F 62.6 °F 40% 30.06 in - South 8.1 mph - N/A   Clear
1:50 PM 89.6 °F 90.1 °F 62.6 °F 40% 30.06 in - South 8.1 mph - N/A   Clear
2:00 PM 89 °F - 64 °F 33% 30.06 in 6 mi South 8.1 mph - -  
2:20 PM 86.0 °F 87.3 °F 64.4 °F 48% 30.06 in - South 8.1 mph - N/A   Clear
2:50 PM 87.8 °F 88.5 °F 62.6 °F 43% 30.06 in - South 9.2 mph - N/A   Clear
3:20 PM 87.8 °F 89.4 °F 64.4 °F 46% 30.06 in - South 9.2 mph - N/A   Clear
3:50 PM 86.0 °F 86.6 °F 62.6 °F 45% 30.04 in - South 9.2 mph - N/A   Clear
4:20 PM 86.0 °F 86.6 °F 62.6 °F 45% 30.04 in - South 9.2 mph - N/A   Clear
4:50 PM 84.2 °F 85.6 °F 64.4 °F 51% 30.04 in - South 9.2 mph - N/A   Clear
5:00 PM 84 °F - 64 °F 42% 30.03 in 12 mi South 8.1 mph - -  
5:20 PM 84.2 °F 85.0 °F 62.6 °F 48% 30.04 in - SSW 6.9 mph - N/A   Clear
5:50 PM 86.0 °F 86.1 °F 60.8 °F 43% 30.01 in - South 8.1 mph - N/A   Clear
6:20 PM 84.2 °F 84.4 °F 60.8 °F 45% 30.01 in - South 5.8 mph - N/A   Clear
6:50 PM 84.2 °F 83.8 °F 59.0 °F 42% 30.01 in - SSW 5.8 mph - N/A   Clear
7:20 PM 84.2 °F 83.8 °F 59.0 °F 42% 30.01 in - South 3.5 mph - N/A   Clear
7:50 PM 82.4 °F 82.9 °F 60.8 °F 48% 30.01 in - SSE 3.5 mph - N/A   Clear
8:00 PM 82 °F - 62 °F 41% 30.01 in 12 mi SSE 4.6 mph - -  
8:20 PM 80.6 °F 81.8 °F 62.6 °F 54% 30.01 in - SSE 3.5 mph - N/A   Clear
8:50 PM 80.6 °F 82.3 °F 64.4 °F 58% 30.01 in - South 2.3 mph - N/A   Clear
9:20 PM 78.8 °F - 64.4 °F 61% 30.01 in - Calm Calm - N/A   Clear
9:50 PM 78.8 °F - 64.4 °F 61% 30.01 in - Calm Calm - N/A   Clear
10:20 PM 78.8 °F - 66.2 °F 65% 30.01 in - Variable 2.3 mph - N/A   Clear
10:50 PM 77.0 °F - 64.4 °F 65% 29.98 in - SSW 2.3 mph - N/A   Clear
11:00 PM 78 °F - 64 °F 53% 29.99 in 12 mi SSW 3.5 mph - -  
11:20 PM 77.0 °F - 64.4 °F 65% 30.01 in - Variable 2.3 mph - N/A   Clear
11:50 PM 77.0 °F - 66.2 °F 69% 30.01 in 6.2 mi South 3.5 mph - N/A   Partly Cloudy